Location: ??????
(55.6130°N, 37.7882°E)
Time: 13:21:27
(UTC+00:00)

Cosmos 1538 Rocket - Pass Details

Date: 14 April 2024
Orbit: 751 x 789 km, 74.0° (Epoch: 18 May)

Event Time Altitude Azimuth Distance (km) Brightness Sun altitude
Exits shadow 00:27:02 18° 194° (SSW) 1,832 5.5 -15.1°
Maximum altitude 00:30:58 71° 114° (ESE) 831 4.2 -14.7°
Drops below altitude 10° 00:36:18 10° 31° (NNE) 2,346 7.8 -14.2°
Sets 00:38:41 0° 29° (NNE) 3,273 8.7 -13.9°
